DW2537 Weather Reports


time (UTC)temp
C
wind
direction
speed
KPH
gust
KPH
rain 1hr
cm
rain 24hr
cm
rain mn
cm
humidity
%
barometer
mb
20260504235019 20 113 0.0 3.2 0.00 0.00 0.00 49 1009.6
20260504234533 20 113 0.0 3.2 0.00 0.00 0.00 49 1009.7
20260504234018 20 0 0.0 3.2 0.00 0.00 0.00 48 1009.6
20260504233520 20 0 0.0 3.2 0.00 0.00 0.00 48 1009.6
20260504233033 20 0 0.0 4.8 0.00 0.00 0.00 47 1009.6
20260504232519 20 0 0.0 4.8 0.00 0.00 0.00 46 1009.5
20260504232019 21 140 0.0 3.2 0.00 0.00 0.00 46 1009.5
20260504231532 21 57 0.0 6.4 0.00 0.00 0.00 46 1009.5
20260504231030 21 51 0.0 6.4 0.00 0.00 0.00 45 1009.5
20260504230518 21 248 0.0 6.4 0.00 0.00 0.00 44 1009.5
20260504230035 21 251 1.6 6.4 0.00 0.00 0.00 44 1009.6
20260504225518 21 136 0.0 4.8 0.00 0.00 0.00 44 1009.5
20260504225018 21 360 1.6 17.7 0.00 0.00 0.00 43 1009.5
20260504224529 21 84 3.2 17.7 0.00 0.00 0.00 39 1009.5
20260504224018 21 183 3.2 12.9 0.00 0.00 0.00 39 1009.5
20260504223518 22 55 1.6 9.7 0.00 0.00 0.00 43 1009.5
20260504223033 22 61 1.6 11.3 0.00 0.00 0.00 42 1009.5
20260504222517 22 97 3.2 11.3 0.00 0.00 0.00 38 1009.5
20260504222020 22 78 3.2 8.0 0.00 0.00 0.00 41 1009.5
20260504221544 22 275 1.6 8.0 0.00 0.00 0.00 41 1009.5
20260504221019 23 122 1.6 8.0 0.00 0.00 0.00 40 1009.4
20260504220520 23 0 3.2 8.0 0.00 0.00 0.00 39 1009.4
20260504220033 23 45 1.6 8.0 0.00 0.00 0.00 36 1009.3
20260504215520 23 41 1.6 14.5 0.00 0.00 0.00 36 1009.3
20260504215019 23 260 1.6 14.5 0.00 0.00 0.00 35 1009.3
20260504214535 23 214 3.2 8.0 0.00 0.00 0.00 33 1009.4
20260504214019 23 280 0.0 9.7 0.00 0.00 0.00 34 1009.4
20260504213518 24 184 1.6 9.7 0.00 0.00 0.00 35 1009.4
20260504213043 24 188 3.2 8.0 0.00 0.00 0.00 36 1009.5
20260504212518 24 20 1.6 6.4 0.00 0.00 0.00 32 1009.4
20260504212017 24 201 1.6 9.7 0.00 0.00 0.00 32 1009.4
20260504211533 24 96 3.2 9.7 0.00 0.00 0.00 34 1009.4
20260504211018 24 258 3.2 9.7 0.00 0.00 0.00 36 1009.4
20260504210518 24 165 1.6 14.5 0.00 0.00 0.00 35 1009.4
20260504210033 24 174 3.2 14.5 0.00 0.00 0.00 35 1009.5
20260504205518 25 180 3.2 9.7 0.00 0.00 0.00 35 1009.5
20260504205018 25 52 3.2 11.3 0.00 0.00 0.00 35 1009.5
20260504204537 25 55 1.6 12.9 0.00 0.00 0.00 37 1009.7
20260504204018 25 163 1.6 12.9 0.00 0.00 0.00 35 1009.8
20260504203518 25 169 3.2 12.9 0.00 0.00 0.00 31 1009.8
20260504203039 25 169 4.8 20.9 0.00 0.00 0.00 31 1009.9
20260504202522 25 202 3.2 20.9 0.00 0.00 0.00 35 1009.9
20260504202019 25 166 6.4 19.3 0.00 0.00 0.00 35 1010.0
20260504201538 24 221 1.6 9.7 0.00 0.00 0.00 35 1010.0
20260504201018 24 183 1.6 16.1 0.00 0.00 0.00 36 1010.1
20260504200518 24 59 3.2 16.1 0.00 0.00 0.00 34 1010.3
20260504200038 25 360 1.6 11.3 0.00 0.00 0.00 37 1010.3
20260504195518 25 215 3.2 12.9 0.00 0.00 0.00 34 1010.3
20260504195019 25 170 4.8 12.9 0.00 0.00 0.00 35 1010.4
20260504194532 24 180 4.8 11.3 0.00 0.00 0.00 36 1010.5
20260504194019 24 27 1.6 14.5 0.00 0.00 0.00 33 1010.5
20260504193519 24 192 3.2 14.5 0.00 0.00 0.00 36 1010.8
20260504193038 24 133 3.2 14.5 0.00 0.00 0.00 37 1010.9
20260504192518 24 217 6.4 14.5 0.00 0.00 0.00 36 1011.0
20260504192018 24 5 3.2 12.9 0.00 0.00 0.00 35 1011.0
20260504191534 24 352 4.8 12.9 0.00 0.00 0.00 39 1011.1
20260504191018 24 89 1.6 9.7 0.00 0.00 0.00 36 1011.1
20260504190520 24 138 3.2 8.0 0.00 0.00 0.00 37 1011.3
20260504190039 24 298 1.6 8.0 0.00 0.00 0.00 37 1011.4
20260504185518 23 237 1.6 8.0 0.00 0.00 0.00 37 1011.4
20260504185018 23 56 3.2 12.9 0.00 0.00 0.00 35 1011.5
20260504184534 23 178 4.8 12.9 0.00 0.00 0.00 34 1011.5
20260504184020 23 70 3.2 16.1 0.00 0.00 0.00 34 1011.6
20260504183519 23 26 1.6 16.1 0.00 0.00 0.00 37 1011.7
20260504183033 23 189 1.6 14.5 0.00 0.00 0.00 39 1011.7
20260504182519 23 26 3.2 14.5 0.00 0.00 0.00 36 1011.8
20260504182019 23 273 4.8 14.5 0.00 0.00 0.00 34 1011.8
20260504181533 23 202 3.2 14.5 0.00 0.00 0.00 37 1012.0
20260504181019 23 331 3.2 14.5 0.00 0.00 0.00 37 1011.9
20260504180519 23 101 4.8 14.5 0.00 0.00 0.00 37 1012.0
20260504180032 23 198 3.2 9.7 0.00 0.00 0.00 35 1012.0
20260504175521 23 180 3.2 12.9 0.00 0.00 0.00 32 1012.1
20260504175018 23 336 3.2 12.9 0.00 0.00 0.00 36 1012.2
20260504174534 22 168 3.2 12.9 0.00 0.00 0.00 34 1012.0
20260504174016 22 178 3.2 8.0 0.00 0.00 0.00 32 1012.1
20260504173519 22 42 3.2 9.7 0.00 0.00 0.00 35 1012.3
20260504173036 22 18 3.2 12.9 0.00 0.00 0.00 33 1012.3
20260504172519 22 175 3.2 12.9 0.00 0.00 0.00 35 1012.3
20260504172019 22 193 3.2 9.7 0.00 0.00 0.00 33 1012.5
20260504171532 22 184 1.6 9.7 0.00 0.00 0.00 33 1012.7
20260504171019 22 5 3.2 9.7 0.00 0.00 0.00 35 1012.8
20260504170516 22 85 3.2 9.7 0.00 0.00 0.00 37 1012.7
20260504151018 20 222 1.6 6.4 0.00 0.00 0.00 36 1013.7
20260504150518 20 236 0.0 6.4 0.00 0.00 0.00 39 1013.9
20260504141017 17 309 0.0 4.8 0.00 0.00 0.00 47 1014.2
20260504140516 17 223 1.6 4.8 0.00 0.00 0.00 42 1014.3
20260504130516 14 188 3.2 12.9 0.00 0.00 0.00 49 1014.5
20260504110518 7 247 0.0 3.2 0.00 0.00 0.00 79 1015.1
20260504100518 8 247 0.0 3.2 0.00 0.00 0.00 77 1015.1
20260504081537 7 0 0.0 3.2 0.00 0.00 0.00 75 1015.3
20260504081018 7 0 0.0 3.2 0.00 0.00 0.00 72 1015.3
20260504080517 7 0 0.0 3.2 0.00 0.00 0.00 74 1015.3
20260504050518 6 0 0.0 3.2 0.00 0.00 0.00 74 1015.6
20260504045518 6 0 0.0 3.2 0.00 0.00 0.00 73 1015.6
20260504045018 6 0 0.0 0.0 0.00 0.00 0.00 73 1015.6
20260504044540 6 0 0.0 0.0 0.00 0.00 0.00 72 1015.6
20260504044018 6 0 0.0 3.2 0.00 0.00 0.00 72 1015.6
20260504043519 6 0 0.0 3.2 0.00 0.00 0.00 72 1015.7
20260504043035 6 0 0.0 3.2 0.00 0.00 0.00 72 1015.6
20260504042517 6 0 0.0 3.2 0.00 0.00 0.00 71 1015.6
20260504042019 6 196 0.0 3.2 0.00 0.00 0.00 71 1015.6
20260504041535 6 0 0.0 3.2 0.00 0.00 0.00 70 1015.7
20260504041017 6 0 0.0 3.2 0.00 0.00 0.00 70 1015.7
20260504040518 6 0 0.0 3.2 0.00 0.00 0.00 69 1015.7
20260504040041 6 0 0.0 3.2 0.00 0.00 0.00 69 1015.6
20260504035521 6 0 0.0 3.2 0.00 0.00 0.00 69 1015.7
20260504035020 7 0 0.0 3.2 0.00 0.00 0.00 69 1015.6
20260504034540 7 0 0.0 3.2 0.00 0.00 0.00 68 1015.5
20260504034018 7 196 0.0 3.2 0.00 0.00 0.00 67 1015.5
20260504033520 7 0 0.0 3.2 0.00 0.00 0.00 66 1015.5
20260504033040 7 0 0.0 3.2 0.00 0.00 0.00 68 1015.4
20260504032518 7 196 0.0 3.2 0.00 0.00 0.00 68 1015.3
20260504032018 7 0 0.0 3.2 0.00 0.00 0.00 69 1015.2
20260504031543 7 0 0.0 3.2 0.00 0.00 0.00 68 1015.2
20260504031017 7 196 0.0 3.2 0.00 0.00 0.00 67 1015.1
20260504030518 7 196 0.0 3.2 0.00 0.00 0.00 67 1015.0
20260504030040 7 196 0.0 3.2 0.00 0.00 0.00 67 1014.9
20260504025518 7 0 0.0 3.2 0.00 0.00 0.00 68 1014.9
20260504025020 7 0 0.0 3.2 0.00 0.00 0.00 68 1014.9
20260504024534 7 196 0.0 3.2 0.00 0.00 0.00 66 1015.0
20260504024017 7 0 0.0 0.0 0.00 0.00 0.00 66 1014.9
20260504023518 7 0 0.0 1.6 0.00 0.00 0.00 66 1014.9
20260504023040 7 0 0.0 1.6 0.00 0.00 0.00 66 1015.0
20260504022517 7 0 0.0 0.0 0.00 0.00 0.00 63 1014.9
20260504022019 7 0 0.0 3.2 0.00 0.00 0.00 65 1014.9
20260504021536 7 0 0.0 3.2 0.00 0.00 0.00 66 1014.9
20260504021017 8 196 0.0 3.2 0.00 0.00 0.00 65 1014.8
20260504020517 8 0 0.0 3.2 0.00 0.00 0.00 65 1014.9
20260504020034 8 0 0.0 3.2 0.00 0.00 0.00 65 1014.8
20260504015518 8 0 0.0 3.2 0.00 0.00 0.00 64 1014.9
20260504015018 8 0 0.0 0.0 0.00 0.00 0.00 61 1014.9
20260504014534 8 0 0.0 0.0 0.00 0.00 0.00 63 1014.7
20260504014016 8 0 0.0 3.2 0.00 0.00 0.00 62 1014.8
20260504013516 8 0 0.0 3.2 0.00 0.00 0.00 62 1014.8
20260504013041 8 0 0.0 0.0 0.00 0.00 0.00 60 1014.7
20260504012519 9 0 0.0 0.0 0.00 0.00 0.00 60 1014.7
20260504012019 9 0 0.0 0.0 0.00 0.00 0.00 59 1014.7
20260504011539 9 0 0.0 0.0 0.00 0.00 0.00 59 1014.7
20260504011017 10 0 0.0 3.2 0.00 0.00 0.00 57 1014.6
20260504010516 10 0 0.0 3.2 0.00 0.00 0.00 54 1014.5
20260504010036 10 196 0.0 3.2 0.00 0.00 0.00 52 1014.6
20260504005517 10 0 0.0 0.0 0.00 0.00 0.00 55 1014.5
20260504005018 10 0 0.0 0.0 0.00 0.00 0.00 53 1014.5
20260504004536 11 0 0.0 0.0 0.00 0.00 0.00 52 1014.5
20260504004017 11 0 0.0 0.0 0.00 0.00 0.00 52 1014.5
20260504003516 11 0 0.0 0.0 0.00 0.00 0.00 47 1014.4
20260504003046 11 0 0.0 0.0 0.00 0.00 0.00 48 1014.3
20260504002516 12 0 0.0 0.0 0.00 0.00 0.00 47 1014.3
20260504002017 12 0 0.0 0.0 0.00 0.00 0.00 43 1014.3
20260504001540 12 0 0.0 0.0 0.00 0.00 0.00 44 1014.2
20260504001021 12 0 0.0 0.0 0.00 0.00 0.00 44 1014.2
20260504000522 13 0 0.0 0.0 0.00 0.00 0.00 43 1014.1
20260504000104 13 0 0.0 3.2 0.00 0.00 0.00 42 1014.1
20260503235517 13 0 0.0 3.2 0.00 0.00 0.00 42 1014.1